This is the latest recevied weather packets stored in our database for station/object G1SCQ. If no packets are shown the sender has not sent any weather packets the latest 10 day(s).
| Time | Temp. | Humidity | Pressure | Rain* | Wind** | Luminosity | Snow |
|---|---|---|---|---|---|---|---|
| 1777572005 | 17.22° C | 38% | 1022.3 hPa | 0 mm | - | 75 W/m² | - |
| 1777571646 | 17.22° C | 38% | 1022.3 hPa | 0 mm | - | 86 W/m² | - |
| 1777571105 | 17.22° C | 38% | 1022.3 hPa | 0 mm | - | 103 W/m² | - |
| 1777570565 | 17.22° C | 37% | 1022.5 hPa | 0 mm | - | 122 W/m² | - |
| 1777570025 | 17.78° C | 37% | 1022.5 hPa | 0 mm | - | 142 W/m² | - |
| 1777569485 | 17.78° C | 36% | 1022.5 hPa | 0 mm | - | 164 W/m² | - |
| 1777568945 | 17.78° C | 35% | 1022.5 hPa | 0 mm | - | 185 W/m² | - |
| 1777568405 | 17.78° C | 36% | 1022.4 hPa | 0 mm | - | 208 W/m² | - |
| 1777568045 | 17.78° C | 37% | 1022.7 hPa | 0 mm | - | 221 W/m² | - |
| 1777567505 | 18.33° C | 35% | 1022.7 hPa | 0 mm | - | 247 W/m² | - |
| 1777566965 | 18.33° C | 36% | 1022.5 hPa | 0 mm | - | 269 W/m² | - |
| 1777566425 | 18.33° C | 35% | 1022.5 hPa | 0 mm | - | 293 W/m² | - |
| 1777565885 | 18.33° C | 36% | 1022.7 hPa | 0 mm | - | 317 W/m² | - |
| 1777565345 | 18.33° C | 36% | 1022.8 hPa | 0 mm | - | 339 W/m² | - |
| 1777564805 | 18.89° C | 34% | 1022.4 hPa | 0 mm | - | 361 W/m² | - |
| 1777564445 | 19.44° C | 35% | 1022.6 hPa | 0 mm | - | 257 W/m² | - |
| 1777563905 | 18.89° C | 35% | 1022.6 hPa | 0 mm | - | 396 W/m² | - |
| 1777563365 | 18.89° C | 36% | 1022.8 hPa | 0 mm | - | 416 W/m² | - |
| 1777562825 | 18.89° C | 36% | 1022.6 hPa | 0 mm | - | 436 W/m² | - |
| 1777562285 | 18.89° C | 36% | 1022.9 hPa | 0 mm | - | 454 W/m² | - |
| 1777561745 | 20° C | 35% | 1023 hPa | 0 mm | - | 473 W/m² | - |
| 1777561205 | 20° C | 34% | 1023.2 hPa | 0 mm | - | 492 W/m² | - |
| 1777560845 | 20° C | 36% | 1023 hPa | 0 mm | - | 502 W/m² | - |
| 1777560305 | 20.56° C | 34% | 1023.3 hPa | 0 mm | - | 516 W/m² | - |
| 1777559765 | 21.11° C | 33% | 1023.1 hPa | 0 mm | - | 530 W/m² | - |
* Rain latest hour (hover to see other rain measurements)
** Current wind speed in m/s (hover to see current wind gust speed)